FW93366 Weather Reports


Display with metric or nautical units.
time (UTC)temp
F
wind
direction
speed
MPH
gust
MPH
rain 1hr
in
rain 24hr
in
rain mn
in
humidity
%
barometer
mb
20260504024542 53 0 0.0 3.0 0.00 0.17 0.03 69 1012.8
20260504023046 53 0 0.0 4.0 0.00 0.17 0.03 66 1012.8
20260504021542 54 0 0.0 4.0 0.00 0.17 0.03 64 1012.5
20260504020040 54 0 0.0 5.0 0.00 0.17 0.03 65 1012.6
20260504014554 54 0 0.0 2.0 0.00 0.17 0.03 60 1012.9
20260504013048 54 0 0.0 0.0 0.00 0.17 0.03 60 1012.9
20260504011548 54 0 0.0 5.0 0.00 0.17 0.03 63 1013.1
20260504010053 54 182 3.0 9.0 0.00 0.17 0.03 66 1013.1
20260504004541 54 193 2.0 9.0 0.00 0.17 0.03 74 1013.1
20260504003042 54 0 0.0 2.0 0.00 0.17 0.03 74 1013.1
20260504001548 53 24 0.0 6.0 0.01 0.17 0.03 75 1012.8
20260504000049 51 28 1.0 4.0 0.01 0.17 0.03 78 1013.1
20260503234543 51 0 0.0 7.0 0.01 0.17 0.03 78 1013.2
20260503233048 51 238 4.0 8.0 0.01 0.17 0.03 76 1013.9
20260503231544 52 0 0.0 4.0 0.00 0.16 0.02 77 1014.5
20260503230048 52 0 0.0 8.0 0.00 0.16 0.02 74 1014.1
20260503224546 52 150 1.0 5.0 0.01 0.16 0.02 72 1014.1
20260503223042 51 178 5.0 15.0 0.01 0.16 0.02 72 1013.9
20260503221549 49 180 7.0 18.0 0.02 0.16 0.02 75 1014.1
20260503220058 50 196 5.0 18.0 0.02 0.16 0.02 73 1014.4
20260503214544 50 193 8.0 24.0 0.01 0.15 0.01 76 1014.8
20260503213040 49 172 16.0 29.0 0.01 0.15 0.01 76 1014.1
20260503211548 50 175 17.0 37.0 0.00 0.14 0.00 73 1013.8
20260503210055 58 144 21.0 34.0 0.00 0.14 0.00 48 1012.2
20260503204558 63 190 8.0 20.0 0.00 0.14 0.00 41 1011.5
20260503203059 64 221 4.0 12.0 0.00 0.14 0.00 38 1011.3
20260503201549 63 229 4.0 10.0 0.00 0.14 0.00 45 1011.5
20260503200049 64 186 4.0 11.0 0.00 0.14 0.00 47 1011.8
20260503194603 64 171 4.0 10.0 0.00 0.14 0.00 45 1011.8
20260503193047 65 186 2.0 5.0 0.00 0.14 0.00 42 1011.8
20260503191543 65 0 2.0 8.0 0.00 0.14 0.00 43 1011.9
20260503190059 64 350 1.0 4.0 0.00 0.14 0.00 47 1012.2
20260503184541 63 38 1.0 4.0 0.00 0.14 0.00 50 1012.4
20260503183050 62 317 2.0 7.0 0.00 0.14 0.00 52 1012.8
20260503181542 62 259 1.0 5.0 0.00 0.14 0.00 55 1012.9
20260503174547 60 265 0.0 4.0 0.00 0.14 0.00 58 1013.5
20260503173131 60 0 0.0 6.0 0.00 0.14 0.00 64 1013.5
20260503171548 58 0 0.0 5.0 0.00 0.14 0.00 68 1013.6
20260503081550 50 0 0.0 2.0 0.00 0.14 0.00 83 1016.0
20260503071543 52 0 0.0 1.0 0.00 0.14 0.00 78 1016.2
20260503054545 53 0 0.0 3.0 0.00 0.14 0.14 74 1015.9
20260503053040 53 0 1.0 3.0 0.00 0.14 0.14 74 1016.1
20260503051544 53 175 1.0 5.0 0.00 0.14 0.14 72 1016.1
20260503050051 54 0 0.0 4.0 0.00 0.14 0.14 70 1015.9
20260503044543 54 0 1.0 8.0 0.00 0.14 0.14 70 1015.8
20260503043043 54 19 4.0 10.0 0.00 0.14 0.14 70 1015.6
20260503041544 54 24 3.0 9.0 0.00 0.14 0.14 74 1015.4
20260503040040 54 349 2.0 10.0 0.00 0.14 0.14 73 1015.1
20260503034539 55 16 2.0 6.0 0.00 0.14 0.14 73 1015.1
20260503033043 55 360 4.0 12.0 0.06 0.14 0.14 70 1014.9
20260503031553 56 348 7.0 14.0 0.10 0.14 0.14 66 1014.7
20260503030047 56 360 4.0 9.0 0.14 0.14 0.14 70 1014.5